GFSNIL_sfc_dewp_132.txt.gz
Dewpoint
54 54 53 52 52 52 52 52 52 51 51 50 50 50 50 49 47 45 45 44 44 45
55 54 53 53 53 53 52 52 52 51 50 50 49 49 49 48 47 46 45 44 44 45
55 55 54 53 53 52 52 52 52 51 50 50 49 49 48 48 47 46 46 45 44 44
53 53 53 53 52 51 51 51 51 51 50 50 49 48 47 47 46 45 43 41 43 39
52 52 51 51 51 51 50 50 50 50 50 49 48 48 47 46 44 43 39 39 38 36
50 50 50 49 49 49 48 48 47 46 43 41 42 41 40 40 39 36 35 35 34 34
43 44 44 42 41 41 40 39 37 37 36 36 35 34 34 34 33 32 32 32 31 30
35 36 37 38 38 37 37 36 36 36 36 36 35 33 33 33 33 33 33 34 35 32
31 31 33 34 35 36 36 37 37 37 38 38 37 41 39 33 31 31 31 32 33 34
30 30 31 33 34 34 35 35 35 36 36 37 37 40 38 35 28 28 29 30 30 29
29 29 30 31 32 32 33 33 34 33 34 36 37 39 38 36 29 28 29 30 29 28
29 29 30 30 30 30 31 32 32 32 32 33 35 37 36 31 29 28 28 29 30 30
30 30 30 30 29 28 28 30 32 30 30 35 32 36 34 31 29 29 29 30 31 35
30 30 30 29 27 26 26 27 25 26 27 28 29 31 35 34 30 30 30 31 31 33

GFSNIL_sfc_dewp_138.txt.gz
Dewpoint
57 57 57 56 56 55 55 55 54 54 52 50 49 48 47 50 51 51 50 50 46 44
55 55 55 55 55 53 53 53 53 52 52 51 50 50 48 46 47 47 47 47 47 47
55 55 54 54 53 52 53 52 52 51 51 51 50 48 48 48 47 46 47 46 45 46
55 55 54 54 53 52 52 52 51 51 51 51 50 50 49 48 47 47 47 47 47 45
53 53 53 53 53 52 52 51 51 51 50 50 50 50 49 49 49 48 46 45 44 41
51 51 51 52 52 51 51 50 50 50 49 48 48 48 47 46 46 45 43 42 39 37
47 47 46 46 47 47 47 47 45 43 41 40 40 39 39 37 35 35 35 36 36 35
44 44 43 42 41 41 39 38 37 36 36 36 36 35 36 36 35 34 34 33 32 34
44 44 44 44 43 41 40 38 38 37 37 37 37 42 40 37 36 37 37 39 40 41
45 44 43 41 40 39 38 37 36 36 36 37 38 41 40 38 35 36 36 37 38 36
42 41 41 40 38 37 37 37 36 35 35 37 37 39 38 36 33 33 33 33 33 33
38 37 36 36 36 35 35 34 33 33 33 33 34 37 35 31 29 30 31 31 32 31
33 34 35 36 35 33 32 33 33 32 32 34 32 36 34 29 27 29 29 29 30 36
32 33 33 33 33 33 31 31 31 32 33 32 33 35 36 33 31 30 31 31 31 32

GFSNIL_sfc_dewp_141.txt.gz
Dewpoint
59 58 57 56 56 56 56 56 55 55 53 51 49 49 49 53 55 54 54 54 52 49
56 57 55 56 56 55 54 54 55 53 52 52 51 49 48 50 53 51 52 51 50 49
55 55 55 54 54 54 53 53 52 52 51 51 51 49 48 49 48 48 49 49 47 46
54 54 53 53 52 53 53 52 52 52 51 51 51 50 49 48 47 47 47 47 47 45
53 53 52 53 53 52 51 51 51 51 51 51 51 51 50 49 48 47 47 48 47 44
52 52 52 52 52 51 50 50 50 50 49 49 50 50 49 49 49 48 47 46 45 42
48 48 49 49 50 50 50 48 46 44 42 42 43 44 44 43 42 41 40 39 38 37
46 45 45 43 43 43 42 42 41 39 38 38 37 36 37 37 36 35 34 34 35 36
45 45 45 43 42 40 40 40 40 39 39 40 39 42 41 39 37 37 37 36 37 39
45 45 44 44 42 42 41 39 39 38 38 38 40 42 41 41 39 39 39 40 41 38
44 43 43 42 41 40 38 38 37 36 37 38 38 41 39 38 37 36 36 36 37 37
41 41 41 40 38 37 36 35 33 33 34 34 35 37 35 31 30 31 32 31 32 31
37 37 37 37 36 35 33 32 31 31 31 34 32 34 32 27 27 28 28 28 32 36
33 34 34 35 33 32 31 32 31 31 31 30 32 34 34 33 29 30 30 30 31 34

GFSNIL_sfc_dewp_144.txt.gz
Dewpoint
59 58 57 57 56 56 56 54 54 53 52 50 48 49 51 54 55 54 54 50 50 48
57 56 56 56 55 55 56 55 55 54 52 52 50 48 48 50 52 51 52 50 48 47
55 55 55 55 54 53 53 54 54 54 52 51 50 49 48 48 48 47 48 47 46 46
53 53 53 53 53 52 52 52 52 52 52 51 51 50 50 49 48 48 47 47 46 45
53 53 52 51 52 52 52 52 51 51 51 51 51 51 50 49 48 48 47 47 46 45
52 52 52 52 52 51 50 51 51 51 51 51 51 51 51 50 49 48 47 46 45 44
50 50 50 50 50 49 48 47 45 44 43 44 47 48 48 48 47 44 42 42 41 39
47 45 45 44 44 44 42 41 40 39 38 38 38 38 38 38 37 37 36 36 36 37
45 43 42 41 40 40 40 40 40 40 40 39 40 44 42 38 35 34 34 35 38 40
45 44 42 41 41 40 40 39 38 39 39 40 40 44 43 42 39 40 41 41 40 40
45 44 43 42 40 39 38 37 37 37 38 39 40 42 42 42 37 36 37 37 37 37
42 42 42 40 38 38 36 35 35 36 36 35 35 38 37 35 32 32 31 34 36 36
41 40 39 38 36 35 33 32 33 33 33 37 33 35 34 32 30 29 29 32 32 39
37 37 36 35 33 32 32 31 32 31 31 31 33 34 37 38 30 30 30 31 33 36

GFSNIL_sfc_dewp_147.txt.gz
Dewpoint
58 57 57 57 57 56 55 55 54 55 55 54 55 57 56 56 54 53 52 49 48 48
57 57 56 56 56 56 54 54 53 53 52 52 50 52 53 55 54 54 52 48 48 47
55 55 55 54 53 54 55 54 54 53 52 51 51 50 50 51 48 49 48 47 45 45
53 53 53 53 53 53 53 54 53 52 52 51 50 50 50 49 48 47 47 47 45 45
52 52 52 52 52 52 52 52 52 52 51 51 51 51 50 50 49 48 47 47 47 47
52 52 52 52 52 52 51 51 51 51 51 51 51 51 51 50 50 49 49 48 47 47
51 50 50 50 50 50 49 49 48 49 50 51 51 51 51 50 50 49 48 47 46 44
47 47 46 46 43 42 42 42 41 41 41 42 43 45 46 46 44 43 40 38 37 38
43 42 41 41 40 40 40 40 40 40 40 41 42 45 44 39 37 36 35 36 39 41
43 42 41 41 40 40 39 40 40 40 40 41 42 45 44 42 39 40 40 41 41 41
43 42 41 41 39 38 38 38 38 39 39 40 42 44 44 44 38 39 38 37 38 39
43 42 40 38 37 37 37 37 37 36 36 36 38 43 42 36 33 32 34 37 35 34
42 41 39 38 36 35 35 35 35 34 34 37 32 39 39 34 31 31 32 31 37 39
41 39 37 35 33 32 32 32 33 33 32 32 33 36 37 36 29 29 30 32 35 35